This is the latest recevied weather packets stored in our database for station/object KN6WGU. If no packets are shown the sender has not sent any weather packets the latest 10 day(s).
| Time | Temp. | Humidity | Pressure | Rain* | Wind** | Luminosity | Snow |
|---|---|---|---|---|---|---|---|
| 1778155438 | 8.33° C | 77% | 1006.3 hPa | 0 mm | - | 77 W/m² | - |
| 1778155134 | 7.78° C | 77% | 1006.4 hPa | 0 mm | - | 71 W/m² | - |
| 1778154830 | 7.78° C | 78% | 1006.5 hPa | 0 mm | - | 66 W/m² | - |
| 1778154526 | 7.78° C | 78% | 1006.5 hPa | 0 mm | - | 67 W/m² | - |
| 1778154223 | 7.78° C | 78% | 1006.3 hPa | 0 mm | - | 61 W/m² | - |
| 1778153921 | 7.78° C | 79% | 1006.3 hPa | 0 mm | - | 56 W/m² | - |
| 1778153618 | 7.78° C | 79% | 1006.3 hPa | 0 mm | - | 46 W/m² | - |
| 1778153315 | 7.22° C | 79% | 1006.4 hPa | 0 mm | - | 40 W/m² | - |
| 1778153012 | 7.22° C | 79% | 1006.3 hPa | 0 mm | - | 43 W/m² | - |
| 1778152710 | 7.22° C | 80% | 1006.3 hPa | 0 mm | - | 45 W/m² | - |
| 1778152406 | 7.22° C | 80% | 1006.3 hPa | 0 mm | - | 32 W/m² | - |
| 1778152102 | 7.22° C | 81% | 1006.3 hPa | 0 mm | - | 23 W/m² | - |
| 1778151799 | 6.67° C | 81% | 1006.2 hPa | 0 mm | - | 24 W/m² | - |
| 1778151496 | 6.67° C | 82% | 1006.2 hPa | 0 mm | - | 21 W/m² | - |
| 1778151192 | 6.67° C | 82% | 1006.1 hPa | 0 mm | - | 17 W/m² | - |
| 1778150889 | 6.67° C | 82% | 1006.1 hPa | 0 mm | - | 11 W/m² | - |
| 1778150586 | 6.67° C | 83% | 1005.8 hPa | 0 mm | - | 9 W/m² | - |
| 1778150282 | 6.67° C | 83% | 1005.6 hPa | 0 mm | - | 7 W/m² | - |
| 1778149978 | 6.11° C | 84% | 1005.7 hPa | 0 mm | - | 6 W/m² | - |
| 1778149675 | 6.11° C | 85% | 1005.7 hPa | 0 mm | - | 4 W/m² | - |
| 1778149372 | 6.11° C | 86% | 1005.7 hPa | 0 mm | - | 3 W/m² | - |
| 1778149067 | 5.56° C | 88% | 1005.7 hPa | 0 mm | - | 1 W/m² | - |
| 1778148757 | 5.56° C | 89% | 1005.7 hPa | 0 mm | - | 1 W/m² | - |
| 1778148455 | 5° C | 90% | 1005.8 hPa | 0 mm | - | 0 W/m² | - |
| 1778148153 | 5° C | 89% | 1005.8 hPa | 0 mm | - | 0 W/m² | - |
* Rain latest hour (hover to see other rain measurements)
** Current wind speed in m/s (hover to see current wind gust speed)